Volver al catálogo

COSMOS 2516

GLONASS

ActivoNavegaciónMEO
NORAD 41554·PAYLOAD·🇷🇺 Russia

Lanzado May 29, 2016 desde Plesetsk Cosmodrome

Loading…

Próximos Pases (próximas 24 horas)

TLE

ActualizadoSource: Space-Track

Época: Sep 11, 2026, 17:09 UTC

1 41554U 16032A   26254.71474176 -.00000001  00000-0  00000+0 0  9998
2 41554  63.8445 188.0910 0017369 211.9063 147.9814  2.13106544 80071

Sigue COSMOS 2516 en tiempo real con AllMySat

Download on the App Store